Weather History for KNKX - June, 2013

Change the Weather History Date:

Sunday, June 23, 2013

  Actual Average Record
Temperature  
Mean Temperature 66 °F -  
Max Temperature 72 °F 73 °F 87 °F (2001)
Min Temperature 60 °F 56 °F 51 °F (1999)
Growing Degree Days 16 (Base 50)    
Moisture  
Dew Point 53 °F    
Average Humidity 67    
Maximum Humidity 80    
Minimum Humidity 53    
Precipitation  
Precipitation 0.00 in - - ()
Sea Level Pressure  
Sea Level Pressure 29.85 in    
Wind  
Wind Speed 5 mph (SSW)    
Max Wind Speed 12 mph    
Max Gust Speed 16 mph    
Visibility 10 miles    
Events      
Averages and records for this station are not official NWS values.
T = Trace of Precipitation, MM = Missing Value Source: NWS Daily Summary

Daily Weather History Graph

Daily Weather History Graph

Search for Another Location

Airport or City:

Trip Planner

Search our weather history database for the weather conditions in past years. The results will help you decide how hot, cold, wet, or windy it might be!

Date:

Astronomy

Jun. 23, 2013 Rise Set
Actual Time 5:41 AM PDT 8:00 PM PDT
Civil Twilight 5:12 AM PDT 8:29 PM PDT
Nautical Twilight 4:37 AM PDT 9:04 PM PDT
Astronomical Twilight 3:59 AM PDT 9:42 PM PDT
Moon 8:21 PM PDT (6/23) 6:00 AM PDT (6/23)
Length of Visible Light 15h 16m
Length of Day
14h 19m
Full, 100% of the Moon is Illuminated
Jun 23
Full
Jun 29
Last Quarter
Jul 8
New
Jul 15
First Quarter
Jul 22
Full

Hourly Weather History & Observations

Time (PDT) Temp. Dew Point Humidity Pressure Visibility Wind Dir Wind Speed Gust Speed Precip Events Conditions
12:55 AM 61.0 °F 54.0 °F 78% 29.86 in 10.0 mi SSE 4.6 mph - N/A   Overcast
1:55 AM 61.0 °F 54.0 °F 78% 29.86 in 10.0 mi Calm Calm - N/A   Overcast
2:55 AM 60.1 °F 54.0 °F 80% 29.85 in 10.0 mi Calm Calm - N/A   Overcast
3:55 AM 60.1 °F 54.0 °F 80% 29.85 in 9.0 mi South 4.6 mph - N/A   Overcast
4:55 AM 60.1 °F 53.1 °F 78% 29.85 in 10.0 mi South 5.8 mph - N/A   Overcast
5:55 AM 61.0 °F 53.1 °F 75% 29.85 in 10.0 mi Calm Calm - N/A   Overcast
6:55 AM 61.0 °F 53.1 °F 75% 29.86 in 9.0 mi SSW 8.1 mph - N/A   Overcast
7:55 AM 61.0 °F 53.1 °F 75% 29.87 in 10.0 mi SSE 5.8 mph - N/A   Overcast
8:55 AM 63.0 °F 53.1 °F 70% 29.88 in 10.0 mi South 5.8 mph - N/A   Overcast
9:55 AM 64.0 °F 53.1 °F 67% 29.87 in 10.0 mi South 6.9 mph - N/A   Overcast
10:55 AM 69.1 °F 53.1 °F 57% 29.87 in 10.0 mi SSW 4.6 mph - N/A   Scattered Clouds
11:37 AM 69.8 °F 51.8 °F 53% 29.88 in 10.0 mi WSW 9.2 mph - N/A   Scattered Clouds
11:55 AM 69.1 °F 52.0 °F 54% 29.86 in 10.0 mi Variable 6.9 mph - N/A   Partly Cloudy
12:55 PM 71.1 °F 54.0 °F 55% 29.86 in 10.0 mi WSW 10.4 mph 16.1 mph N/A   Partly Cloudy
1:55 PM 71.1 °F 54.0 °F 55% 29.85 in 10.0 mi SW 8.1 mph - N/A   Mostly Cloudy
2:55 PM 69.1 °F 53.1 °F 57% 29.84 in 10.0 mi SW 10.4 mph - N/A   Scattered Clouds
3:55 PM 70.0 °F 53.1 °F 55% 29.83 in 10.0 mi West 11.5 mph - N/A   Mostly Cloudy
4:55 PM 68.0 °F 53.1 °F 59% 29.82 in 10.0 mi SW 5.8 mph - N/A   Mostly Cloudy
5:55 PM 66.9 °F 53.1 °F 61% 29.81 in 10.0 mi Variable 6.9 mph - N/A   Mostly Cloudy
6:55 PM 66.0 °F 53.1 °F 63% 29.81 in 10.0 mi SSW 4.6 mph - N/A   Mostly Cloudy
7:55 PM 63.0 °F 53.1 °F 70% 29.81 in 10.0 mi WSW 4.6 mph - N/A   Mostly Cloudy
8:55 PM 61.0 °F 53.1 °F 75% 29.83 in 10.0 mi WSW 5.8 mph - N/A   Mostly Cloudy
9:55 PM 62.1 °F 53.1 °F 72% 29.84 in 10.0 mi Calm Calm - N/A   Mostly Cloudy
10:55 PM 62.1 °F 53.1 °F 72% 29.84 in 10.0 mi WSW 4.6 mph - N/A   Overcast
11:55 PM 62.1 °F 53.1 °F 72% 29.85 in 10.0 mi Calm Calm - N/A   Overcast